Simultaneous Nadir Overpasses (SNOs) Predictions

Prediction of SNOs between GOES-17 and FY3D Satellite Orbit:

Table of predicted SNOs for the next 14.0 days since TLE Epoch: 4/24/2021
Index Date Time (GOES-17) GOES-17 Lat,Lon FY3D Lat,Lon Distance(km) Time Diff (sec)
1 04/26/2021 10:49:21 -0.02,-137.20 0.14,-137.90 79.91 80
2 04/27/2021 10:27:43 -0.02,-137.19 -0.89,-133.31 442.31 80
3 04/28/2021 22:49:19 0.02,-137.18 -0.25,-138.53 153.08 80
4 04/29/2021 22:33:02 0.02,-137.17 0.78,-133.94 368.76 80
5 05/01/2021 10:54:29 -0.02,-137.15 0.44,-139.11 223.40 80
6 05/02/2021 10:32:52 -0.02,-137.14 -0.59,-134.52 298.01 80
7 05/03/2021 22:54:28 0.01,-137.11 -0.55,-139.73 298.52 80
8 05/04/2021 22:38:10 0.01,-137.09 0.43,-135.13 222.91 80
9 05/06/2021 10:59:38 -0.01,-137.07 0.73,-140.31 369.56 80
10 05/07/2021 10:38:00 -0.01,-137.06 -0.30,-135.73 151.62 80
